星链-31578 (STARLINK-31578 )

导读

STARLINK-31578是美国SpaceX星链计划下的低轨通信卫星,于2024年3月25日发射升空。它运行于近地轨道,作为星链星座的组成部分,为全球提供高速低延迟互联网服务,重点覆盖偏远与网络欠发达区域。依托SpaceX先进的一箭多星技术与低轨部署优势,该卫星助力星链扩展全球网络覆盖,推动数字普惠,同时也让太空资源利用与天文观测等领域面临新的挑战。

基本信息
目录编号:
59321
目录名称:
STARLINK-31578
国际标识:
2024-057B
轨道中心:
EARTH
卫星名称:
星链-31578
卫星全名:
星链-31578 (STARLINK-31578 )
卫星状态:
在轨 (已飞行815 天)
发射日期:
2024-03-25 UTC
国别 :
美国 (US)
星等 :
--
轨道信息
数据来源 国际轨道数据 AOE轨道数据
星历时间 2026-06-17T12:54:17+0800
22小时前
查看轨道信息
2026-06-14T17:00:00+0800
3天前
查看轨道信息
半长轴 6861.187km 6861.199km
偏心率 0.0001439 0.000145
轨道倾角 43.004° 42.987°
近地点辐角 276.137° 237.703°
升交点赤经 344.629° 0.613°
平近点角 83.932° 24.642°
近地点 482.062km 482.067km
远地点 484.038km 484.057km
周期 94.267分钟 94.267分钟
每日圈数 15.275798 15.27576
详细信息
固有亮度:
5
最大亮度:
0.3
卫星平台:
Starlink v2.0 mini
覆盖范围:
全球
运营商:
太空探索技术公司
运营商所在国:
美国
制造商(研发单位):
太空探索技术公司
制造商所在国:
美国
使用方式:
暂无
卫星简介
星链(Starlink)计划是由太空探索技术公司(SpaceX)提出的一个巨型低轨卫星互联网星座项目,计划在2019年至2024年间在太空搭建由约1.2万颗卫星组成的“星链”网络,其中1584颗将部署在地球上空550千米处的近地轨道,并从2020年开始工作。该卫星仍在工作。
2D轨道图
3D轨道图
轨道高度分析图
轨道倾角分析图
轨道综合分析图
查看轨道综合分析图